TimeMST,TemperatureF,Dew PointF,Humidity,Sea Level PressureIn,VisibilityMPH,Wind Direction,Wind SpeedMPH,Gust SpeedMPH,PrecipitationIn,Events,Conditions,WindDirDegrees,DateUTC
12:15 AM,34.0,12.2,41,29.88,10.0,WSW,18.4,26.5,N/A,,Clear,250,2012-12-09 07:15:00
12:35 AM,33.8,11.5,40,29.87,10.0,WSW,20.7,26.5,N/A,,Clear,240,2012-12-09 07:35:00
1:15 AM,33.1,10.9,40,29.87,10.0,WSW,19.6,24.2,N/A,,Clear,240,2012-12-09 08:15:00
1:55 AM,32.7,10.4,40,29.86,10.0,WSW,18.4,-,N/A,,Clear,250,2012-12-09 08:55:00
2:15 AM,32.9,10.2,39,29.86,10.0,WSW,17.3,26.5,N/A,,Clear,240,2012-12-09 09:15:00
2:35 AM,32.5,10.2,39,29.86,10.0,WSW,19.6,25.3,N/A,,Clear,240,2012-12-09 09:35:00
2:55 AM,32.9,10.2,39,29.86,10.0,WSW,18.4,24.2,N/A,,Clear,240,2012-12-09 09:55:00
3:15 AM,32.9,10.0,39,29.86,10.0,WSW,19.6,-,N/A,,Clear,240,2012-12-09 10:15:00
3:35 AM,32.2,10.0,40,29.86,10.0,WSW,15.0,-,N/A,,Clear,240,2012-12-09 10:35:00
3:55 AM,32.2,10.0,40,29.86,10.0,WSW,16.1,23.0,N/A,,Clear,250,2012-12-09 10:55:00
4:15 AM,31.8,10.2,41,29.86,10.0,WSW,13.8,18.4,N/A,,Clear,250,2012-12-09 11:15:00
4:35 AM,31.5,10.4,42,29.86,10.0,WSW,12.7,-,N/A,,Clear,250,2012-12-09 11:35:00
4:55 AM,30.6,10.2,43,29.85,10.0,WSW,9.2,-,N/A,,Clear,250,2012-12-09 11:55:00
5:15 AM,28.6,10.2,46,29.86,10.0,WSW,10.4,-,N/A,,Clear,240,2012-12-09 12:15:00
5:35 AM,30.4,10.0,43,29.85,10.0,SW,11.5,21.9,N/A,,Clear,230,2012-12-09 12:35:00
5:55 AM,29.3,9.9,44,29.86,10.0,SW,9.2,-,N/A,,Clear,220,2012-12-09 12:55:00
6:15 AM,28.9,9.9,45,29.86,10.0,SW,9.2,-,N/A,,Clear,220,2012-12-09 13:15:00
6:35 AM,29.3,9.5,44,29.87,10.0,SW,10.4,-,N/A,,Scattered Clouds,220,2012-12-09 13:35:00
6:55 AM,25.7,10.4,52,29.88,10.0,West,3.5,-,N/A,,Mostly Cloudy,270,2012-12-09 13:55:00
7:15 AM,28.0,11.1,49,29.88,10.0,SW,3.5,-,N/A,,Overcast,230,2012-12-09 14:15:00
7:35 AM,29.8,11.1,46,29.87,10.0,WSW,3.5,-,N/A,,Overcast,240,2012-12-09 14:35:00
7:55 AM,33.1,10.8,40,29.87,10.0,WSW,12.7,-,N/A,,Overcast,250,2012-12-09 14:55:00
8:15 AM,33.3,10.9,40,29.87,10.0,WSW,10.4,19.6,N/A,,Overcast,250,2012-12-09 15:15:00
8:35 AM,33.1,11.1,40,29.87,10.0,WSW,17.3,-,N/A,,Overcast,240,2012-12-09 15:35:00
8:55 AM,32.4,11.3,42,29.88,10.0,West,11.5,18.4,N/A,,Overcast,260,2012-12-09 15:55:00
9:35 AM,32.4,11.3,42,29.87,10.0,SSW,5.8,-,N/A,,Overcast,200,2012-12-09 16:35:00
9:55 AM,28.9,16.7,60,29.87,10.0,South,12.7,19.6,N/A,,Overcast,180,2012-12-09 16:55:00
10:15 AM,27.1,17.6,67,29.88,10.0,South,13.8,18.4,N/A,,Overcast,180,2012-12-09 17:15:00
10:35 AM,25.7,19.0,76,29.88,5.0,South,13.8,20.7,N/A,Snow,Light Snow,180,2012-12-09 17:35:00
11:15 AM,22.6,19.0,86,29.87,1.5,South,16.1,-,N/A,Snow,Light Snow,190,2012-12-09 18:15:00
11:35 AM,21.6,18.0,86,29.86,0.5,South,18.4,21.9,N/A,Snow,Snow,180,2012-12-09 18:35:00
11:55 AM,20.8,17.6,87,29.86,0.8,South,20.7,-,N/A,Snow,Light Snow,180,2012-12-09 18:55:00
12:15 PM,20.1,16.7,87,29.84,0.5,South,18.4,26.5,N/A,Snow,Snow,190,2012-12-09 19:15:00
12:35 PM,20.3,16.7,86,29.84,0.5,South,19.6,24.2,N/A,Snow,Snow,180,2012-12-09 19:35:00
12:55 PM,19.0,15.6,87,29.84,0.2,SSE,19.6,25.3,N/A,Snow,Snow,160,2012-12-09 19:55:00
2:35 PM,13.3,9.9,86,29.89,0.2,NNW,8.1,-,0.01,Snow,Heavy Snow,330,2012-12-09 21:35:00
3:35 PM,9.0,5.9,87,29.92,0.2,North,11.5,16.1,0.01,Snow,Heavy Snow,350,2012-12-09 22:35:00
3:55 PM,9.1,6.1,87,29.94,0.2,North,8.1,-,0.02,Snow,Snow,360,2012-12-09 22:55:00
4:15 PM,9.0,6.1,88,29.96,0.2,North,12.7,-,N/A,Snow,Snow,360,2012-12-09 23:15:00
4:35 PM,7.7,4.8,88,29.97,-9999.0,NNE,10.4,-,N/A,,Overcast,20,2012-12-09 23:35:00
4:55 PM,7.9,4.8,87,29.98,-9999.0,North,9.2,-,N/A,,Overcast,10,2012-12-09 23:55:00
5:15 PM,7.5,4.1,86,29.99,-9999.0,North,11.5,-,N/A,,Overcast,10,2012-12-10 00:15:00
5:35 PM,7.3,4.1,87,30.00,-9999.0,North,8.1,-,N/A,,Overcast,10,2012-12-10 00:35:00
5:55 PM,7.5,3.9,85,30.01,-9999.0,North,10.4,-,N/A,,Overcast,360,2012-12-10 00:55:00
6:15 PM,7.2,3.2,84,30.02,-9999.0,NNE,6.9,-,N/A,,Overcast,30,2012-12-10 01:15:00
6:35 PM,7.5,3.0,82,30.03,-9999.0,NNE,5.8,-,0.01,,Overcast,20,2012-12-10 01:35:00
6:55 PM,7.5,3.2,82,30.03,-9999.0,North,8.1,-,0.02,,Overcast,350,2012-12-10 01:55:00
7:55 PM,6.8,3.2,85,30.05,-9999.0,North,5.8,-,N/A,,Overcast,350,2012-12-10 02:55:00
8:15 PM,6.1,2.3,84,30.05,7.0,North,3.5,-,N/A,,Overcast,350,2012-12-10 03:15:00
8:35 PM,5.7,2.1,85,30.05,4.0,Calm,Calm,-,N/A,Snow,Light Snow,0,2012-12-10 03:35:00
8:55 PM,4.3,0.3,84,30.05,3.0,Calm,Calm,-,N/A,Snow,Light Snow,0,2012-12-10 03:55:00
9:15 PM,2.7,-0.6,86,30.07,7.0,SSE,3.5,-,N/A,Snow,Light Snow,160,2012-12-10 04:15:00
9:35 PM,-5.4,-9.8,82,30.06,10.0,Calm,Calm,-,N/A,Snow,Light Snow,0,2012-12-10 04:35:00
9:55 PM,-9.0,-13.5,81,30.06,7.0,Calm,Calm,-,N/A,Snow,Light Snow,0,2012-12-10 04:55:00
10:15 PM,-10.3,-13.5,86,30.07,7.0,Calm,Calm,-,N/A,Snow,Light Snow,0,2012-12-10 05:15:00
10:35 PM,-14.6,-18.6,82,30.06,10.0,SSE,3.5,-,N/A,Snow,Light Snow,150,2012-12-10 05:35:00
10:55 PM,-16.6,-21.3,79,30.06,10.0,Calm,Calm,-,N/A,,Mostly Cloudy,0,2012-12-10 05:55:00
11:15 PM,-15.7,-19.8,82,30.05,10.0,Calm,Calm,-,N/A,Snow,Light Snow,0,2012-12-10 06:15:00
11:35 PM,-15.0,-19.8,79,30.03,10.0,SSE,3.5,-,N/A,Snow,Light Snow,150,2012-12-10 06:35:00
11:55 PM,-15.0,-19.5,80,30.03,10.0,Calm,Calm,-,N/A,Snow,Light Snow,0,2012-12-10 06:55:00